Weather in Sep

Russia / Udmurt Republic     57°31′27″N   53°18′48″E
temp.,
°C
wind,
m/s
gust,
m/s
humid.,
%
clouds,
%
prec.,
mm/h
press.,
hPa
HPBL,
m
31 july, sat
sat3101:00+16w1294100 0.1 100514
04:00+15s2293100 0.1 100517
07:00+17s2691100 0.1 1005172
10:00+17sse2798100 3.9 1004287
13:00+18sse489788 5.0 1003502
16:00+22ssw488943 7.2 1001715
19:00+20wsw5109318 1.1 1001750
22:00+18wsw39989 1.1 1003295
1 august, sun
sun101:00+16wsw38977 0.2 1004181
04:00+15wsw311965 0.3 1006253
07:00+16wsw4119115 0.0 1007320
10:00+21w612595 0.0 10081351
13:00+24w6104323 0.0 10092379
16:00+24w594489 0.0 10092535
19:00+21wsw51165100 0.0 1010523
22:00+16w248852 0.0 101174
2 august, mon
mon201:00+16sw2387100 0.0 101245
04:00+16sw258587 0.0 1012105
07:00+17sw2879100 0.0 1013219
10:00+22wsw51060100 0.1 1013700
13:00+25sw5954100 0.2 1012970
16:00+26wsw495595 0.2 10111382
19:00+23w2272100 0.0 101140
22:00+20ssw118292 0.0 101111
3 august, tue
tue301:00+18sw118728 0.3 101211
04:00+18s118722 0.3 101211
07:00+20sse368456 0.3 1012154
10:00+26s47525 0.3 1011485
13:00+30ssw583736 0.0 10101258
16:00+31s47395 0.0 10091213
19:00+27sse36605 0.0 1007102
22:00+21s36595 0.0 100894
4 august, wed
wed401:00+17s38805 0.2 1009117
04:00+16sw399174 1.0 1010159
07:00+20w158354 0.1 1010142
10:00+25se356192 0.1 1009345
13:00+28sse3347100 0.0 10091114
16:00+28sw2354100 0.0 10091171
19:00+22wnw38845 0.4 1009300
22:00+18w279299 0.4 1011202